| time (UTC) | temp C | wind direction | speed KPH | gust KPH | rain 1hr cm | rain 24hr cm | rain mn cm | humidity % | barometer mb |
| 20260506001514 | 13 | 360 | 9.7 | 16.1 | 0.00 | 0.00 | 0.00 | 86 | 1015.8 |
| 20260506000046 | 13 | 360 | 4.8 | 16.1 | 0.00 | 0.00 | 0.00 | 86 | 1015.7 |
| 20260505234510 | 13 | 360 | 8.0 | 16.1 | 0.00 | 0.00 | 0.00 | 86 | 1015.8 |
| 20260505233031 | 13 | 360 | 6.4 | 17.7 | 0.00 | 0.00 | 0.00 | 85 | 1015.9 |
| 20260505231559 | 14 | 360 | 6.4 | 14.5 | 0.00 | 0.00 | 0.00 | 85 | 1016.0 |
| 20260505230026 | 15 | 312 | 4.8 | 16.1 | 0.00 | 0.00 | 0.00 | 84 | 1016.1 |
| 20260505224551 | 15 | 360 | 4.8 | 16.1 | 0.00 | 0.00 | 0.00 | 84 | 1016.2 |
| 20260505223018 | 15 | 360 | 3.2 | 16.1 | 0.00 | 0.00 | 0.00 | 85 | 1016.3 |
| 20260505221549 | 15 | 279 | 6.4 | 14.5 | 0.00 | 0.00 | 0.00 | 85 | 1016.3 |
| 20260505220020 | 14 | 297 | 4.8 | 19.3 | 0.00 | 0.00 | 0.00 | 85 | 1016.5 |
| 20260505214554 | 15 | 360 | 6.4 | 17.7 | 0.00 | 0.00 | 0.00 | 83 | 1016.4 |
| 20260505213106 | 15 | 279 | 1.6 | 19.3 | 0.00 | 0.00 | 0.00 | 84 | 1016.5 |
| 20260505211528 | 15 | 308 | 1.6 | 16.1 | 0.00 | 0.00 | 0.00 | 85 | 1016.5 |
| 20260505210040 | 15 | 269 | 8.0 | 17.7 | 0.00 | 0.00 | 0.00 | 83 | 1016.4 |
| 20260505204507 | 16 | 360 | 1.6 | 16.1 | 0.00 | 0.00 | 0.00 | 85 | 1016.3 |
| 20260505203029 | 15 | 360 | 6.4 | 16.1 | 0.00 | 0.00 | 0.00 | 84 | 1016.4 |
| 20260505201606 | 15 | 360 | 4.8 | 14.5 | 0.00 | 0.00 | 0.00 | 86 | 1016.4 |
| 20260505200019 | 15 | 360 | 6.4 | 14.5 | 0.00 | 0.00 | 0.00 | 86 | 1016.4 |
| 20260505194547 | 15 | 296 | 4.8 | 14.5 | 0.00 | 0.00 | 0.00 | 85 | 1016.3 |
| 20260505193032 | 15 | 360 | 6.4 | 12.9 | 0.00 | 0.00 | 0.00 | 86 | 1016.2 |
| 20260505191549 | 15 | 360 | 1.6 | 12.9 | 0.00 | 0.00 | 0.00 | 87 | 1016.2 |
| 20260505190110 | 15 | 360 | 6.4 | 12.9 | 0.00 | 0.00 | 0.00 | 88 | 1016.2 |
| 20260505184518 | 15 | 360 | 4.8 | 11.3 | 0.00 | 0.00 | 0.00 | 88 | 1016.1 |
| 20260505183042 | 14 | 221 | 3.2 | 8.0 | 0.00 | 0.00 | 0.00 | 88 | 1016.1 |
| 20260505181558 | 14 | 236 | 3.2 | 8.0 | 0.00 | 0.00 | 0.00 | 88 | 1015.9 |
| 20260505180031 | 14 | 360 | 3.2 | 6.4 | 0.00 | 0.00 | 0.00 | 89 | 1015.8 |
| 20260505174545 | 13 | 246 | 3.2 | 8.0 | 0.00 | 0.00 | 0.00 | 88 | 1015.7 |
| 20260505173008 | 13 | 260 | 0.0 | 4.8 | 0.00 | 0.00 | 0.00 | 89 | 1015.7 |
| 20260505171541 | 13 | 281 | 0.0 | 8.0 | 0.00 | 0.00 | 0.00 | 88 | 1015.7 |
| 20260505170114 | 13 | 239 | 0.0 | 6.4 | 0.00 | 0.00 | 0.00 | 88 | 1015.4 |
| 20260505164535 | 13 | 244 | 0.0 | 0.0 | 0.00 | 0.00 | 0.00 | 87 | 1015.4 |
| 20260505163038 | 13 | 246 | 0.0 | 0.0 | 0.00 | 0.00 | 0.00 | 86 | 1015.5 |
| 20260505161502 | 13 | 225 | 0.0 | 0.0 | 0.00 | 0.00 | 0.00 | 86 | 1015.5 |
| 20260505153005 | 12 | 172 | 0.0 | 0.0 | 0.00 | 0.00 | 0.00 | 89 | 1015.6 |
| 20260505151532 | 12 | 173 | 0.0 | 0.0 | 0.00 | 0.00 | 0.00 | 89 | 1015.5 |
| 20260505150115 | 12 | 173 | 0.0 | 0.0 | 0.00 | 0.00 | 0.00 | 90 | 1015.4 |
| 20260505124604 | 11 | 162 | 0.0 | 0.0 | 0.00 | 0.00 | 0.00 | 92 | 1014.8 |
| 20260505123024 | 11 | 162 | 0.0 | 0.0 | 0.00 | 0.00 | 0.00 | 92 | 1014.7 |
| 20260505121547 | 11 | 162 | 0.0 | 0.0 | 0.00 | 0.00 | 0.00 | 92 | 1014.8 |
| 20260505120058 | 11 | 162 | 0.0 | 0.0 | 0.00 | 0.00 | 0.00 | 91 | 1014.5 |
| 20260505114522 | 12 | 162 | 0.0 | 0.0 | 0.00 | 0.00 | 0.00 | 91 | 1014.6 |
| 20260505113051 | 12 | 168 | 0.0 | 0.0 | 0.00 | 0.00 | 0.00 | 91 | 1014.5 |
| 20260505111515 | 12 | 168 | 0.0 | 0.0 | 0.00 | 0.00 | 0.00 | 91 | 1014.4 |
| 20260505101553 | 12 | 165 | 0.0 | 0.0 | 0.00 | 0.00 | 0.00 | 90 | 1014.1 |
| 20260505100021 | 12 | 166 | 0.0 | 0.0 | 0.00 | 0.00 | 0.00 | 90 | 1014.0 |
| 20260505094547 | 12 | 171 | 0.0 | 0.0 | 0.00 | 0.00 | 0.00 | 90 | 1014.0 |
| 20260505093009 | 12 | 173 | 0.0 | 1.6 | 0.00 | 0.00 | 0.00 | 90 | 1014.0 |
| 20260505091545 | 12 | 171 | 0.0 | 1.6 | 0.00 | 0.00 | 0.00 | 90 | 1014.1 |
| 20260505090006 | 12 | 360 | 0.0 | 3.2 | 0.00 | 0.00 | 0.00 | 90 | 1014.2 |
| 20260505084531 | 12 | 163 | 0.0 | 9.7 | 0.00 | 0.00 | 0.00 | 91 | 1014.2 |
| 20260505083041 | 12 | 360 | 0.0 | 6.4 | 0.00 | 0.00 | 0.00 | 90 | 1014.2 |
| 20260505081502 | 12 | 198 | 3.2 | 11.3 | 0.00 | 0.00 | 0.00 | 90 | 1014.3 |
| 20260505080045 | 12 | 186 | 0.0 | 4.8 | 0.00 | 0.00 | 0.00 | 90 | 1014.4 |
| 20260505074556 | 12 | 211 | 3.2 | 9.7 | 0.00 | 0.00 | 0.00 | 90 | 1014.6 |
| 20260505073019 | 12 | 198 | 0.0 | 12.9 | 0.00 | 0.00 | 0.00 | 91 | 1014.5 |
| 20260505071547 | 12 | 179 | 3.2 | 6.4 | 0.00 | 0.00 | 0.00 | 91 | 1014.5 |
| 20260505070013 | 12 | 169 | 3.2 | 8.0 | 0.00 | 0.00 | 0.00 | 92 | 1014.6 |
| 20260505064537 | 12 | 172 | 0.0 | 9.7 | 0.00 | 0.00 | 0.00 | 92 | 1014.6 |
| 20260505063004 | 12 | 184 | 3.2 | 16.1 | 0.00 | 0.00 | 0.00 | 92 | 1014.6 |
| 20260505061529 | 12 | 151 | 4.8 | 11.3 | 0.00 | 0.00 | 0.00 | 92 | 1014.4 |
| 20260505060059 | 12 | 360 | 3.2 | 14.5 | 0.00 | 0.00 | 0.00 | 92 | 1014.4 |
| 20260505054523 | 12 | 178 | 3.2 | 9.7 | 0.00 | 0.00 | 0.00 | 92 | 1014.5 |
| 20260505053048 | 12 | 179 | 3.2 | 11.3 | 0.00 | 0.00 | 0.00 | 92 | 1014.4 |
| 20260505051600 | 12 | 174 | 3.2 | 11.3 | 0.00 | 0.00 | 0.00 | 93 | 1014.5 |
| 20260505041540 | 12 | 207 | 3.2 | 14.5 | 0.00 | 0.00 | 0.00 | 93 | 1013.9 |
| 20260505040043 | 12 | 186 | 0.0 | 11.3 | 0.00 | 0.00 | 0.00 | 93 | 1013.9 |
| 20260505034604 | 12 | 164 | 4.8 | 14.5 | 0.00 | 0.00 | 0.00 | 93 | 1013.6 |
| 20260505033026 | 12 | 187 | 3.2 | 17.7 | 0.00 | 0.00 | 0.00 | 93 | 1013.7 |
| 20260505031556 | 12 | 360 | 1.6 | 11.3 | 0.00 | 0.00 | 0.00 | 93 | 1013.6 |
| 20260505030016 | 12 | 222 | 3.2 | 16.1 | 0.00 | 0.00 | 0.00 | 92 | 1013.6 |
| 20260505024546 | 12 | 229 | 3.2 | 16.1 | 0.00 | 0.00 | 0.00 | 93 | 1013.5 |
| 20260505023009 | 12 | 185 | 6.4 | 19.3 | 0.00 | 0.00 | 0.00 | 92 | 1013.5 |
| 20260505021541 | 12 | 234 | 1.6 | 17.7 | 0.00 | 0.00 | 0.00 | 92 | 1013.2 |
| 20260505020003 | 12 | 202 | 6.4 | 16.1 | 0.00 | 0.00 | 0.00 | 91 | 1013.3 |
| 20260505014534 | 13 | 224 | 4.8 | 14.5 | 0.00 | 0.00 | 0.00 | 91 | 1013.3 |
| 20260505013058 | 13 | 215 | 6.4 | 20.9 | 0.00 | 0.00 | 0.00 | 90 | 1013.4 |
| 20260505011529 | 13 | 215 | 4.8 | 17.7 | 0.00 | 0.00 | 0.00 | 90 | 1013.5 |
| 20260505010049 | 13 | 360 | 9.7 | 27.4 | 0.00 | 0.00 | 0.00 | 89 | 1013.4 |
| 20260505004524 | 13 | 207 | 4.8 | 19.3 | 0.00 | 0.00 | 0.00 | 90 | 1013.6 |
| 20260505003042 | 14 | 257 | 12.9 | 25.7 | 0.00 | 0.00 | 0.00 | 88 | 1013.6 |